MDT,Max TemperatureF,Mean TemperatureF,Min TemperatureF,Max Dew PointF,MeanDew PointF,Min DewpointF,Max Humidity, Mean Humidity, Min Humidity, Max Sea Level PressureIn, Mean Sea Level PressureIn, Min Sea Level PressureIn, Max VisibilityMiles, Mean VisibilityMiles, Min VisibilityMiles, Max Wind SpeedMPH, Mean Wind SpeedMPH, Max Gust SpeedMPH,PrecipitationIn, CloudCover, Events, WindDirDegrees
2012-3-1,41,31,21,28,23,16,92,68,44,29.88,29.81,29.73,10,6,0,25,11,32,0.01,6,Fog-Snow,204
2012-3-2,33,25,16,23,19,7,96,75,54,30.32,30.01,29.81,10,6,0,30,11,37,0.05,6,Fog-Snow,319
2012-3-3,37,24,10,19,10,2,74,55,35,30.53,30.44,30.33,10,10,10,13,5,15,0.00,0,,147
2012-3-4,49,34,19,27,20,14,78,56,34,30.50,30.40,30.31,10,10,10,12,4,13,0.00,0,,148
2012-3-5,59,42,24,29,21,18,81,52,23,30.30,30.15,29.95,10,10,10,10,4,18,0.00,0,,143
2012-3-6,63,48,33,25,16,6,69,41,12,29.92,29.59,29.38,10,10,9,31,8,41,0.00,1,,188
2012-3-7,51,39,27,34,25,10,92,57,21,30.06,29.76,29.43,10,8,1,24,8,29,T,4,Snow,164
2012-3-8,52,38,24,28,22,15,92,58,24,30.48,30.32,30.11,10,10,10,13,5,15,0.00,0,,163
2012-3-9,56,40,24,22,18,9,81,48,15,30.50,30.32,30.15,10,10,10,16,7,18,0.00,0,,142
2012-3-10,59,42,25,22,18,15,74,47,19,30.14,29.97,29.82,10,10,10,16,7,20,0.00,0,,168
2012-3-11,61,44,26,22,17,12,75,45,15,29.87,29.81,29.73,10,10,10,17,7,22,0.00,0,,178
2012-3-12,62,48,34,20,15,11,47,31,14,29.99,29.93,29.83,10,10,10,17,7,22,0.00,0,,151
2012-3-13,65,50,34,20,12,3,51,31,10,29.99,29.93,29.86,10,10,10,23,10,32,0.00,0,,175
2012-3-14,66,49,31,13,5,-6,43,25,6,30.05,29.99,29.94,10,10,10,21,9,26,0.00,0,,161
2012-3-15,69,51,33,22,15,12,41,27,13,30.15,30.04,29.96,10,10,10,14,8,21,0.00,0,,155
2012-3-16,70,54,37,22,17,9,48,29,9,29.96,29.86,29.75,10,10,10,23,10,29,0.00,0,,168
2012-3-17,68,54,39,24,16,11,41,27,12,29.80,29.64,29.52,10,10,9,31,13,41,0.00,0,,174
2012-3-18,56,43,29,36,26,12,78,48,18,29.69,29.49,29.33,10,8,1,32,14,41,0.13,5,Rain-Snow,182
2012-3-19,39,32,25,25,21,15,92,66,40,29.86,29.72,29.60,10,9,2,23,6,28,0.01,5,Snow,162
2012-3-20,46,34,21,25,20,8,96,58,19,30.14,30.02,29.86,10,10,10,12,4,16,0.00,3,,89
2012-3-21,56,41,26,25,20,14,75,51,26,30.18,30.08,29.97,10,10,10,13,6,17,0.00,2,,141
2012-3-22,66,48,29,25,21,9,72,42,12,30.07,29.97,29.84,10,10,10,15,6,23,0.00,0,,140
2012-3-23,74,53,32,23,19,12,61,35,9,30.05,29.95,29.87,10,10,10,17,7,21,0.00,0,,165
2012-3-24,74,56,37,23,19,12,48,29,10,30.05,29.97,29.89,10,10,10,18,6,22,0.00,0,,159
2012-3-25,76,57,37,25,21,10,54,32,9,29.98,29.87,29.74,10,10,10,20,8,28,0.00,0,,173
2012-3-26,65,51,37,25,16,9,45,29,12,29.94,29.75,29.68,10,10,7,38,13,55,0.00,0,,211
2012-3-27,67,49,31,19,17,14,56,36,15,30.05,29.98,29.91,10,10,10,16,6,21,0.00,0,,179
2012-3-28,72,54,35,21,14,2,52,30,7,29.98,29.90,29.81,10,10,10,25,10,31,0.00,0,,188
2012-3-29,69,55,41,24,19,14,37,25,13,29.96,29.88,29.81,10,10,10,20,7,25,0.00,0,,161
2012-3-30,71,54,37,25,22,19,48,32,15,29.96,29.89,29.83,10,10,10,16,6,21,0.00,0,,150
2012-3-31,79,61,42,28,20,11,45,26,7,29.95,29.78,29.63,10,10,10,22,11,29,0.00,0,,177